Location: Béaulencourt
(50.0796°N, 2.8795°E)
Time: 16:00:33
(UTC+00:00)

Dummy Sat-02 - Pass Details

Date: 26 April 2026
Orbit: 472 x 483 km, 86.3° (Epoch: 14 May)

Event Time Altitude Azimuth Distance (km) Brightness Sun altitude
Rises 19:45:29 0° 178° (S) 2,522 7.9 -7.4°
Reaches altitude 10° 19:47:33 10° 177° (S) 1,647 6.9 -7.6°
Maximum altitude 19:51:07 75° 92° (E) 500 4.5 -8.1°
Drops below altitude 10° 19:54:43 10° 7° (N) 1,656 7.6 -8.6°
Sets 19:56:49 0° 6° (N) 2,538 8.6 -8.9°
